"TOA5","AWS1","CR1000","7964","CR1000.Std.14","CPU:AWS1_114.CR1","64363","TBL110"
"TIMESTAMP","RECORD","Wind_spd_WVc(1)","Wind_spd_WVc(2)","Air_Temp_Avg","Humidity_Avg","SW_upper_Wm2_Avg","Rain_Tot","Press_Avg","Issui_Tot","Depth_cm","SR50A_Raw","Quality","Ground_Temp_Avg(1)","Ground_Temp_Avg(2)","SW_lower_Wm2_Avg","Albedo_Avg","SWC_per(1)","SWC_per(2)","Period(1)","Period(2)"
"TS","RN","","","","","","","","","","","","","","","","","","",""
"","","WVc","WVc","Avg","Avg","Avg","Tot","Avg","Tot","Smp","Smp","Smp","Avg","Avg","Avg","Avg","Smp","Smp","Smp","Smp"
"2016-02-18 00:00:00",222973,0.859,187,-9.55,74.69,0.01180294,0,865.907,0,26.85,2.967,216,0.982,1.502,0.106216,0,52.6,61.04,33.94,35.92
"2016-02-18 00:10:00",222974,0.453,182.6,-9.99,76.35,0.07868627,0,865.6582,0,26.25,2.974,208,0.982,1.502,0.007586854,0,52.6,61.04,33.94,35.92
"2016-02-18 00:20:00",222975,0.636,174,-10.31,78.04,0.1495039,0,865.7341,0,26.45,2.973,197,0.982,1.493,0,0,52.6,61.04,33.94,35.92
"2016-02-18 00:30:00",222976,0.787,204.9,-9.64,75.04,0,0,865.9133,0,25.68,2.973,200,0.982,1.485,0.3300281,0,52.6,61.04,33.94,35.92
"2016-02-18 00:40:00",222977,0.492,146.4,-9.7,74.13,0,0,866.0314,0,26.76,2.965,244,0.984,1.503,0.0834554,0,52.6,61.04,33.94,35.92
"2016-02-18 00:50:00",222978,0.744,211.9,-9.03,70.76,0,0,866.0727,0,26.77,2.961,213,0.982,1.496,0.1934648,0,52.6,61.04,33.94,35.92
"2016-02-18 01:00:00",222979,0.341,173.1,-9.11,70.79,0,0,866.0687,0,26.09,2.971,203,0.984,1.49,0.03414084,0,52.6,61.04,33.94,35.92
"2016-02-18 01:10:00",222980,0.652,191.4,-9.36,72.5,0,0,866.1476,0,26.31,2.969,204,0.994,1.485,0.03414239,0,52.55,61.04,33.92,35.92
"2016-02-18 01:20:00",222981,0.635,165.5,-9.72,73.67,0,0,865.9602,0,26.95,2.964,195,0.996,1.504,0.0493169,0,52.6,61.1,33.94,35.93
"2016-02-18 01:30:00",222982,0.488,168.3,-9.67,74.4,0,0,865.967,0,26.85,2.966,193,0.99,1.509,0.03793507,0,52.55,61.1,33.92,35.93
"2016-02-18 01:40:00",222983,0.07,270.3,-9.86,75.77,0.05508095,0,866.1722,0,25.96,2.974,202,0.986,1.483,0,0,52.55,61.04,33.92,35.92
"2016-02-18 01:50:00",222984,0.118,133.8,-10.02,76.5,0,0,866.2474,0,27.16,2.964,204,0.99,1.503,0,0,52.6,61.1,33.94,35.93
"2016-02-18 02:00:00",222985,0.281,145.3,-9.84,76.27,0,0,866.3179,0,26.05,2.975,229,0.993,1.521,0.1365694,0,52.6,61.1,33.94,35.93
"2016-02-18 02:10:00",222986,0.313,128.7,-9.89,76.9,0,0,866.5065,0,28.12,2.952,242,0.995,1.518,0.06069775,0,52.55,61.04,33.92,35.92
"2016-02-18 02:20:00",222987,0.347,221.1,-8.94,72.65,0,0,866.704,0,26.6,2.965,198,0.999,1.507,0.5614639,0,52.6,61.1,33.94,35.93
"2016-02-18 02:30:00",222988,0.085,45.21,-9.19,73.19,0,0,866.7076,0,26.32,2.964,190,1.003,1.53,0.0910496,0,52.6,61.04,33.94,35.92
"2016-02-18 02:40:00",222989,0.397,307.3,-8.02,66.85,0,0,866.7078,0,26.03,2.964,205,1.009,1.511,1.369567,0,52.6,61.1,33.94,35.93
"2016-02-18 02:50:00",222990,0.193,33.19,-8.83,71.2,0,0,866.7333,0,27.11,2.954,201,1.009,1.479,0.1138154,0,52.6,61.04,33.94,35.92
"2016-02-18 03:00:00",222991,0.162,305.8,-8.71,71.17,0,0,866.7305,0,26.89,2.962,193,1.013,1.483,0.5994322,0,52.6,61.04,33.94,35.92
"2016-02-18 03:10:00",222992,0.371,303.5,-8.72,73.01,0,0,866.6855,0,26.52,2.959,198,1.025,1.535,0.5159968,0,52.6,61.04,33.94,35.92
"2016-02-18 03:20:00",222993,0.299,298.4,-8.17,69.81,0,0,866.6722,0,27.49,2.952,201,1.029,1.539,0.6070566,0,52.55,61.04,33.92,35.92
"2016-02-18 03:30:00",222994,0.254,279.3,-8.39,71.37,0,0,866.5685,0,26.61,2.96,211,1.026,1.523,0.1441733,0,52.55,60.98,33.92,35.9
"2016-02-18 03:40:00",222995,0.473,205.7,-8.2,70.81,0,0,866.4695,0,27.18,2.952,192,1.025,1.542,0.3945824,0,52.55,61.04,33.92,35.92
"2016-02-18 03:50:00",222996,0.682,250.2,-8.24,70.07,0,0,866.4561,0,27.11,2.954,197,1.029,1.541,0.166937,0,52.55,60.98,33.92,35.9
"2016-02-18 04:00:00",222997,0.571,314.8,-8.36,69.14,0,0,866.291,0,27.11,2.954,201,1.016,1.531,0.0531146,0,52.6,60.98,33.94,35.9
"2016-02-18 04:10:00",222998,0.62,279.9,-8.2,68.24,0,0,866.2253,0,27.31,2.952,203,0.999,1.524,0.1214008,0,52.6,61.04,33.94,35.92
"2016-02-18 04:20:00",222999,0.706,219.2,-8.33,68.84,0,0,866.1943,0,27.32,2.953,195,1.018,1.513,0,0,52.55,60.98,33.92,35.9
"2016-02-18 04:30:00",223000,0.529,247.8,-8.55,71.47,0,0,866.4193,0,26.48,2.961,204,1.003,1.506,0.007586933,0,52.55,61.04,33.92,35.92
"2016-02-18 04:40:00",223001,0.475,257.7,-8.34,70.61,0,0,866.5265,0,25.99,2.968,197,0.991,1.503,0.01517381,0,52.6,61.04,33.94,35.92
"2016-02-18 04:50:00",223002,0.634,283.6,-8.5,74.11,0,0,866.6793,0,26.1,2.964,197,0.998,1.502,0.003793434,0,52.6,61.04,33.94,35.92
"2016-02-18 05:00:00",223003,0.42,212.3,-8.9,75.58,0.08262064,0,866.632,0,26.54,2.966,196,1.015,1.501,0.01896716,0,52.55,61.04,33.92,35.92
"2016-02-18 05:10:00",223004,0.634,185.6,-9.35,78.36,0.01967158,0,866.5183,0,26.32,2.969,190,1.005,1.501,0,0,52.55,61.04,33.92,35.92
"2016-02-18 05:20:00",223005,0.707,171.3,-9.41,78.78,0,0,866.4879,0,26.52,2.966,188,0.982,1.501,0,0,52.55,60.98,33.92,35.9
"2016-02-18 05:30:00",223006,0.963,188.7,-9.11,78.03,0,0,866.5153,0,26.62,2.964,193,1.002,1.501,0.01517372,0,52.55,61.04,33.92,35.92
"2016-02-18 05:40:00",223007,0.386,191,-9.22,77.9,0.03934316,0,866.6745,0,27,2.962,196,0.997,1.501,0.01517372,0,52.55,61.04,33.92,35.92
"2016-02-18 05:50:00",223008,0.904,182.3,-9.31,78.51,0,0,866.7372,0,26.81,2.963,195,0.99,1.5,0.007586859,0,52.55,61.04,33.92,35.92
"2016-02-18 06:00:00",223009,0.682,203.8,-8.88,76.79,0,0,866.9291,0,27.22,2.955,190,0.984,1.5,0.1820846,0,52.55,60.98,33.92,35.9
"2016-02-18 06:10:00",223010,0.82,201.5,-8.53,76.51,0,0,866.9313,0,27.22,2.955,194,0.998,1.501,0.13277,0,52.55,61.04,33.92,35.92
"2016-02-18 06:20:00",223011,0.521,209,-8.35,76.45,0,0,866.9354,0,27.32,2.952,195,1.001,1.501,0.05690144,0,52.55,61.04,33.92,35.92
"2016-02-18 06:30:00",223012,0.817,203.7,-8.26,75.61,0,0,866.9062,0,26.38,2.964,194,0.981,1.501,0.5690144,0,52.55,60.98,33.92,35.9
"2016-02-18 06:40:00",223013,0.693,178.7,-8.66,77.5,0.1691756,0,866.9075,0,26.09,2.966,196,0.978,1.501,1.498405,1.331,52.49,61.04,33.91,35.92
"2016-02-18 06:50:00",223014,0.167,73.33,-8.61,76.78,1.0662,0,866.9394,0,26.78,2.957,189,0.989,1.501,3.539269,4.286,52.55,61.04,33.92,35.92
"2016-02-18 07:00:00",223015,0.097,0.452,-7.958,74.12,0.5508043,0,866.9249,0,25.71,2.965,192,0.99,1.501,6.809206,13.75,52.55,61.04,33.92,35.92
"2016-02-18 07:10:00",223016,0.041,77.05,-8.72,76.43,2.002567,0,866.983,0,26.89,2.96,190,0.973,1.501,7.954821,7.492,52.55,60.98,33.92,35.9
"2016-02-18 07:20:00",223017,0.167,119.5,-9.21,79.41,3.285154,0,866.9539,0,26.7,2.967,186,0.987,1.501,10.6823,3.461,52.55,60.98,33.92,35.9
"2016-02-18 07:30:00",223018,0.484,173.1,-9.97,83.8,12.16884,0,867.077,0,27,2.963,197,0.986,1.501,33.45805,2.798,52.55,60.98,33.92,35.9
"2016-02-18 07:40:00",223019,0.44,159.5,-9.63,82.8,16.25659,0,867.181,0,26.74,2.964,190,0.975,1.501,47.03094,2.928,52.49,60.98,33.91,35.9
"2016-02-18 07:50:00",223020,0.179,155.4,-8.97,81.6,17.84999,0,867.4083,0,26.92,2.96,184,1.052,1.496,56.22621,3.208,52.55,60.98,33.92,35.9
"2016-02-18 08:00:00",223021,0.178,113.8,-8.8,80.2,22.06364,0,867.5411,0,26.9,2.957,186,1.069,1.434,61.50666,2.946,52.55,60.98,33.92,35.9
"2016-02-18 08:10:00",223022,0.369,126.1,-8.14,78.86,17.51164,0,867.7561,0,27.21,2.95,194,1.06,1.472,76.99144,4.396,52.55,60.98,33.92,35.9
"2016-02-18 08:20:00",223023,0.621,123.9,-7.173,75.34,20.07288,0,867.9396,0,26.92,2.948,190,1.027,1.572,87.10093,4.424,52.55,60.98,33.92,35.9
"2016-02-18 08:30:00",223024,0.64,117.6,-6.527,72.06,22.33511,0,867.9396,0,27.18,2.942,187,0.999,1.575,92.48001,4.178,52.55,60.98,33.92,35.9
"2016-02-18 08:40:00",223025,0.472,123,-5.806,68.39,22.59084,0,867.9312,0,26.36,2.946,195,0.986,1.541,93.43974,4.153,52.55,60.98,33.92,35.9
"2016-02-18 08:50:00",223026,0.473,118.6,-5.492,70.24,23.97965,0,867.9607,0,26.61,2.943,181,1.056,1.503,90.01807,3.807,52.55,60.98,33.92,35.9
"2016-02-18 09:00:00",223027,0.29,359.7,-5.244,63.81,25.69876,0,868.0345,0,26.02,2.95,187,1.069,1.56,86.14809,3.421,52.55,60.98,33.92,35.9
"2016-02-18 09:10:00",223028,0.229,342.2,-5.293,63.86,25.03977,0,868.0753,0,27.31,2.935,194,1.013,1.531,85.01481,3.397,52.49,60.98,33.91,35.9
"2016-02-18 09:20:00",223029,0.289,1.934,-5.041,63.66,28.79696,0,868.1125,0,27.02,2.938,188,0.982,1.523,84.46149,2.975,52.55,60.98,33.92,35.9
"2016-02-18 09:30:00",223030,0.442,332.4,-5.121,63.36,27.20172,0,868.1002,0,26.52,2.941,194,1.015,1.511,84.07173,3.101,52.55,60.98,33.92,35.9
"2016-02-18 09:40:00",223031,0.207,3.878,-4.711,59.57,26.32772,0,868.1942,0,26.22,2.942,195,1.019,1.471,84.41418,3.206,52.55,60.98,33.92,35.9
"2016-02-18 09:50:00",223032,0.451,323.1,-4.742,63.31,26.98425,0,868.3347,0,26.75,2.938,185,1.067,1.46,86.54826,3.207,52.49,60.98,33.91,35.9
"2016-02-18 10:00:00",223033,0.446,6.571,-4.456,64.53,27.64096,0,868.3492,0,27.49,2.928,193,1.069,1.459,88.19376,3.192,52.49,60.98,33.91,35.9
"2016-02-18 10:10:00",223034,0.32,352.9,-4.171,63.09,27.637,0,868.3619,0,26.75,2.935,190,1.068,1.458,88.77766,3.212,52.55,60.98,33.92,35.9
"2016-02-18 10:20:00",223035,0.608,358.7,-4.053,64.76,28.41179,0,868.5853,0,26.93,2.932,179,1.057,1.5,93.33579,3.285,52.49,60.92,33.91,35.89
"2016-02-18 10:30:00",223036,0.505,345.2,-3.902,64.79,29.0804,0,868.6022,0,26.96,2.93,185,1.046,1.5,98.2011,3.377,52.55,60.98,33.92,35.9
"2016-02-18 10:40:00",223037,0.493,346.8,-3.57,65.8,30.53537,0,868.6022,0,27.18,2.926,193,1.028,1.495,109.6335,3.591,52.55,60.92,33.92,35.89
"2016-02-18 10:50:00",223038,0.401,328.4,-3.488,66.97,31.2343,0,868.5958,0,26.99,2.928,181,1.015,1.498,127.3191,4.08,52.55,60.92,33.92,35.89
"2016-02-18 11:00:00",223039,0.392,39.28,-2.799,65.48,30.83115,0,868.5455,0,27.16,2.921,188,0.967,1.511,132.8391,4.312,52.55,60.92,33.92,35.89
"2016-02-18 11:10:00",223040,0.381,322.6,-2.268,62.23,33.86037,0,868.5104,0,27.28,2.919,193,1.001,1.495,138.849,4.115,52.55,60.98,33.92,35.9
"2016-02-18 11:20:00",223041,0.675,355.8,-2.15,64.12,38.41835,0,868.5167,0,27.44,2.917,191,0.993,1.472,148.8415,3.901,52.55,60.92,33.92,35.89
"2016-02-18 11:30:00",223042,0.708,359.2,-1.98,63.65,43.3039,0,868.5115,0,27.15,2.919,192,0.962,1.46,171.6984,4.005,52.49,60.92,33.91,35.89
"2016-02-18 11:40:00",223043,0.58,305.2,-1.698,62.16,49.35015,0,868.4364,0,26.98,2.917,191,0.944,1.454,210.954,4.378,52.49,60.92,33.91,35.89
"2016-02-18 11:50:00",223044,0.74,14.37,-1.017,59.75,84.47514,0,868.257,0,27.33,2.911,192,0.964,1.422,253.6114,3.222,52.49,60.92,33.91,35.89
"2016-02-18 12:00:00",223045,0.398,57.84,-0.266,59.4,81.71108,0,868.2569,0,25.93,2.919,179,0.993,1.422,331.8008,4.197,52.55,60.92,33.92,35.89
"2016-02-18 12:10:00",223046,0.427,8.44,0.05,57.36,180.4418,0,868.1686,0,26.94,2.911,191,1.023,1.457,395.8198,2.201,52.55,60.92,33.92,35.89
"2016-02-18 12:20:00",223047,0.435,354.9,0.067,57.31,208.0594,0,868.1962,0,26.78,2.911,190,0.979,1.435,428.1043,2.059,52.49,60.92,33.91,35.89
"2016-02-18 12:30:00",223048,0.606,332.6,0.109,56.63,233.0453,0,868.1404,0,26.78,2.912,190,0.966,1.478,437.2234,1.875,52.55,60.92,33.92,35.89
"2016-02-18 12:40:00",223049,0.332,330.8,0.173,58.49,216.1342,0,867.9142,0,26.8,2.913,190,0.937,1.463,368.4765,1.722,52.49,60.92,33.91,35.89
"2016-02-18 12:50:00",223050,0.498,13.52,0.273,57.45,296.809,0,867.8536,0,26.72,2.909,170,0.96,1.454,444.8908,1.524,52.49,60.92,33.91,35.89
"2016-02-18 13:00:00",223051,0.392,81.3,1.345,54.35,373.3044,0,867.8284,0,26.45,2.908,182,0.933,1.424,467.6259,1.256,52.49,60.92,33.91,35.89
"2016-02-18 13:10:00",223052,0.57,37.18,1.18,53.72,482.1729,0,867.7657,0,26.54,2.91,191,0.894,1.368,459.9731,0.963,52.49,60.86,33.91,35.88
"2016-02-18 13:20:00",223053,0.723,228.3,0.812,53.84,609.222,0,867.6041,0,26.48,2.91,186,0.862,1.34,446.9715,0.735,52.49,60.92,33.91,35.89
"2016-02-18 13:30:00",223054,0.984,152.2,1.047,51.56,710.0272,0,867.4793,0,26.5,2.909,186,0.836,1.327,422.9538,0.598,52.49,60.92,33.91,35.89
"2016-02-18 13:40:00",223055,0.477,171.4,1.386,47.85,1012.332,0,867.4724,0,26.41,2.908,177,0.818,1.317,389.9804,0.391,52.49,60.92,33.91,35.89
"2016-02-18 13:50:00",223056,0.58,131.1,1.676,49.8,1016.435,0,867.4654,0,26.66,2.906,173,0.836,1.292,316.0035,0.309,52.49,60.86,33.91,35.88
"2016-02-18 14:00:00",223057,0.694,170.6,1.097,52.68,1028.326,0,867.4757,0,26.93,2.907,182,0.832,1.286,265.5304,0.26,52.49,60.92,33.91,35.89
"2016-02-18 14:10:00",223058,0.83,136.3,0.571,46.31,751.6299,0,867.4651,0,27.09,2.907,182,0.826,1.319,138.171,0.207,52.49,60.92,33.91,35.89
"2016-02-18 14:20:00",223059,0.908,155.1,0.561,44.99,216.58,0,867.2653,0,27.06,2.907,178,0.845,1.345,101.2065,0.81,52.49,60.92,33.91,35.89
"2016-02-18 14:30:00",223060,1.17,154.4,0.184,44.54,45.33242,0,867.2231,0,27.37,2.906,174,0.839,1.331,55.6721,1.224,52.49,60.92,33.91,35.89
"2016-02-18 14:40:00",223061,1.019,143.6,0.219,45.03,42.18641,0,867.2336,0,27.46,2.904,187,0.83,1.28,40.4523,0.961,52.49,60.92,33.91,35.89
"2016-02-18 14:50:00",223062,0.576,156.8,0.262,46.26,35.55302,0,867.306,0,27.05,2.908,187,0.814,1.279,33.38993,0.941,52.49,60.92,33.91,35.89
"2016-02-18 15:00:00",223063,0.569,123,0.319,44.11,31.08591,0,867.5094,0,27.24,2.906,170,0.77,1.342,30.609,0.985,52.49,60.92,33.91,35.89
"2016-02-18 15:10:00",223064,0.416,294.4,0.158,44.4,29.05018,0,867.554,0,27.26,2.907,186,0.828,1.264,28.02504,0.965,52.49,60.92,33.91,35.89
"2016-02-18 15:20:00",223065,0.322,129.5,0.247,42.52,26.18082,0,867.5357,0,26.94,2.909,186,0.875,1.266,26.42895,1.01,52.49,60.92,33.91,35.89
"2016-02-18 15:30:00",223066,0.597,141.2,0.29,42.39,23.21955,0,867.5834,0,26.8,2.911,169,0.819,1.316,24.88068,1.072,52.49,60.92,33.91,35.89
"2016-02-18 15:40:00",223067,0.85,143.3,0.176,41.9,20.6355,0,867.7369,0,26.79,2.911,190,0.771,1.363,23.59023,1.145,52.49,60.92,33.91,35.89
"2016-02-18 15:50:00",223068,0.688,135.7,0.094,44.71,19.29074,0,867.8947,0,27.04,2.909,174,0.851,1.334,21.7069,1.126,52.49,60.92,33.91,35.89
"2016-02-18 16:00:00",223069,0.512,69.48,0.176,45.02,17.19791,0,867.8851,0,26.85,2.911,189,0.91,1.352,20.08339,1.168,52.49,60.92,33.91,35.89
"2016-02-18 16:10:00",223070,0.365,101.8,0.01,48.63,15.41035,0,867.8801,0,26.98,2.911,178,0.928,1.369,18.1705,1.18,52.44,60.86,33.89,35.88
"2016-02-18 16:20:00",223071,0.412,75.56,-0.261,50.58,13.31573,0,867.752,0,27.23,2.909,191,0.927,1.388,15.93872,1.197,52.49,60.86,33.91,35.88
"2016-02-18 16:30:00",223072,0.353,59.76,-0.162,49.49,11.27204,0,867.7646,0,26.98,2.911,186,0.877,1.373,15.02172,1.334,52.44,60.86,33.89,35.88
"2016-02-18 16:40:00",223073,0.385,117.7,-0.226,49.47,9.708035,0,867.7246,0,26.61,2.916,187,0.862,1.375,13.57826,1.399,52.44,60.86,33.89,35.88
"2016-02-18 16:50:00",223074,0.32,70.61,-0.397,50.26,7.940173,0,867.6804,0,27.05,2.911,174,0.918,1.4,11.81732,1.509,52.49,60.86,33.91,35.88
"2016-02-18 17:00:00",223075,0.102,3.34,-0.544,55.71,6.010865,0,867.9421,0,26.82,2.915,186,0.955,1.43,9.72633,1.62,52.44,60.86,33.89,35.88
"2016-02-18 17:10:00",223076,0.048,329.8,-0.695,57.9,4.246001,0,867.9904,0,26.73,2.917,189,0.973,1.443,7.463889,1.788,52.44,60.86,33.89,35.88
"2016-02-18 17:20:00",223077,0.015,284.4,-0.89,59.83,1.35246,0,868.0007,0,26.58,2.919,170,0.986,1.376,4.897703,4.495,52.44,60.86,33.89,35.88
"2016-02-18 17:30:00",223078,0.064,271.4,-1.036,59.45,0,0,868.1887,0,26.55,2.92,184,0.965,1.386,2.229004,0,52.49,60.86,33.91,35.88
"2016-02-18 17:40:00",223079,0.046,331.7,-1.323,60.32,0,0,868.4,0,26.73,2.92,182,0.942,1.407,0.405619,0,52.44,60.86,33.89,35.88
"2016-02-18 17:50:00",223080,0.065,304.8,-1.677,62.75,0,0,868.5329,0,26.91,2.921,187,0.938,1.412,0,0,52.44,60.86,33.89,35.88
"2016-02-18 18:00:00",223081,0,0,-1.988,65.43,0,0,868.7372,0,26.67,2.925,192,0.937,1.429,0,0,52.44,60.86,33.89,35.88
"2016-02-18 18:10:00",223082,0,0,-2.295,67.54,0,0,868.7541,0,26.69,2.926,192,0.943,1.453,0,0,52.44,60.86,33.89,35.88
"2016-02-18 18:20:00",223083,0,0,-2.384,66.97,0,0,868.6151,0,26.51,2.928,189,0.896,1.463,0,0,52.44,60.86,33.89,35.88
"2016-02-18 18:30:00",223084,0.294,174.3,-2.836,70.02,0,0,868.5098,0,26.91,2.926,190,0.884,1.486,0,0,52.44,60.86,33.89,35.88
"2016-02-18 18:40:00",223085,0.029,131,-2.614,66.76,0,0,868.5413,0,26.76,2.926,187,0.915,1.477,0,0,52.44,60.86,33.89,35.88
"2016-02-18 18:50:00",223086,0.126,179.7,-2.626,67.3,0,0,868.7467,0,26.54,2.93,191,0.937,1.459,0,0,52.44,60.86,33.89,35.88
"2016-02-18 19:00:00",223087,0.212,162.7,-2.902,69.18,0,0,869.1083,0,26.63,2.93,190,0.983,1.471,0,0,52.44,60.86,33.89,35.88
"2016-02-18 19:10:00",223088,0.281,117.3,-2.912,68.41,0,0,869.2803,0,27.05,2.925,190,0.992,1.491,0,0,52.44,60.86,33.89,35.88
"2016-02-18 19:20:00",223089,0.394,103.2,-2.707,64.95,0,0,869.4709,0,26.65,2.928,190,1.001,1.495,0.117554,0,52.44,60.86,33.89,35.88
"2016-02-18 19:30:00",223090,0.538,147,-2.735,64.33,0,0,869.6133,0,26.75,2.928,190,1.014,1.498,0.0530895,0,52.44,60.86,33.89,35.88
"2016-02-18 19:40:00",223091,0.518,145.7,-3.195,66.95,0,0,869.5546,0,27.03,2.927,178,1.016,1.499,0,0,52.44,60.86,33.89,35.88
"2016-02-18 19:50:00",223092,0.774,144.9,-2.999,63.88,0,0,869.3733,0,26.74,2.929,178,1.014,1.5,0,0,52.44,60.86,33.89,35.88
"2016-02-18 20:00:00",223093,0.725,147.6,-3.381,66.18,0,0,869.2026,0,26.61,2.935,186,1.013,1.5,0,0,52.44,60.8,33.89,35.86
"2016-02-18 20:10:00",223094,0.574,144.6,-3.673,66.1,0,0,869.112,0,26.68,2.931,187,1.023,1.497,0,0,52.38,60.8,33.88,35.86
"2016-02-18 20:20:00",223095,0.467,154.5,-3.396,61.88,0,0,869.1077,0,26.77,2.932,190,1.024,1.492,0,0,52.44,60.8,33.89,35.86
"2016-02-18 20:30:00",223096,0.336,163.7,-3.372,55.47,0,0,869.2426,0,26.68,2.928,170,1.024,1.496,0.02654491,0,52.44,60.86,33.89,35.88
"2016-02-18 20:40:00",223097,0.435,116.6,-2.488,42.74,0,0,869.5335,0,26.63,2.928,186,1.024,1.487,0.1896065,0,52.44,60.8,33.89,35.86
"2016-02-18 20:50:00",223098,0.359,91.7,-2.972,50.04,0,0,869.7675,0,26.9,2.93,178,1.024,1.487,0,0,52.44,60.8,33.89,35.86
"2016-02-18 21:00:00",223099,0.575,130.2,-3.778,58.31,0,0,869.8687,0,26.87,2.934,182,1.025,1.461,0,0,52.38,60.8,33.88,35.86
"2016-02-18 21:10:00",223100,0.412,147.7,-4.136,58.59,0,0,869.8708,0,26.47,2.938,190,1.023,1.428,0,0,52.44,60.8,33.89,35.86
"2016-02-18 21:20:00",223101,0.452,161.1,-3.891,49.51,0,0,869.8054,0,26.99,2.93,182,1.04,1.437,0,0,52.44,60.8,33.89,35.86
"2016-02-18 21:30:00",223102,0.605,149.7,-3.002,36.54,0,0,869.4977,0,26.79,2.929,190,1.042,1.424,0.3943816,0,52.38,60.8,33.88,35.86
"2016-02-18 21:40:00",223103,0.67,151.5,-2.532,29.55,0,0,869.5989,0,26.56,2.925,190,1.026,1.428,0.1820223,0,52.44,60.8,33.89,35.86
"2016-02-18 21:50:00",223104,0.921,146.1,-1.968,25.36,0,0,869.6262,0,26.46,2.926,190,1.021,1.45,0.06825834,0,52.38,60.8,33.88,35.86
"2016-02-18 22:00:00",223105,0.799,151.8,-1.943,23.99,0,0,869.7633,0,26.63,2.924,182,1.014,1.482,0,0,52.38,60.8,33.88,35.86
"2016-02-18 22:10:00",223106,0.943,158.6,-1.911,23.88,0,0,870.0267,0,26.43,2.926,182,1.002,1.498,0,0,52.38,60.8,33.88,35.86
"2016-02-18 22:20:00",223107,0.551,144.4,-2.085,24.76,0,0,869.7885,0,26.25,2.929,187,0.985,1.495,0,0,52.38,60.8,33.88,35.86
"2016-02-18 22:30:00",223108,0.825,151.3,-2.324,25.05,0,0,869.5989,0,27.03,2.923,182,0.999,1.495,0,0,52.38,60.8,33.88,35.86
"2016-02-18 22:40:00",223109,1.065,156,-1.951,22.71,0,0,869.582,0,26.23,2.928,187,0.999,1.497,0,0,52.38,60.8,33.88,35.86
"2016-02-18 22:50:00",223110,0.379,286.8,-2.091,23.28,0,0,869
"2016-02-18 22:50:00",223110,0.379,286.8,-2.091,23.28,0,0,869.6136,0,26.72,2.924,186,1.011,1.5,0,0,52.38,60.8,33.88,35.86
"2016-02-18 23:00:00",223111,0.244,289.9,-2.355,25.09,0,0,869.6052,0,26.38,2.93,182,1.005,1.495,0,0,52.38,60.8,33.88,35.86
"2016-02-18 23:10:00",223112,0.087,176.9,-3.01,31.43,0,0,869.6115,0,26.55,2.936,186,1.023,1.46,0,0,52.38,60.8,33.88,35.86
"2016-02-18 23:20:00",223113,0.414,179.1,-4.016,38.06,0,0,869.6579,0,26.53,2.937,190,1.027,1.427,0,0,52.38,60.8,33.88,35.86
"2016-02-18 23:30:00",223114,0.214,164.5,-4.235,39.88,0,0,869.8117,0,26.37,2.94,190,1.025,1.439,0,0,52.44,60.8,33.89,35.86
"2016-02-18 23:40:00",223115,0.099,185,-3.908,36.08,0,0,869.6158,0,26.25,2.936,190,1.028,1.459,0,0,52.38,60.8,33.88,35.86
"2016-02-18 23:50:00",223116,0.219,166.6,-4.226,40.65,0,0,869.6136,0,26.49,2.94,192,0.997,1.456,0,0,52.38,60.8,33.88,35.86
